| time (UTC) | temp F | wind direction | speed knots | gust knots | rain 1hr in | rain 24hr in | rain mn in | humidity % | barometer mb |
| 20260504044542 | 45 | 0 | 0.0 | 0.0 | 0.00 | 0.00 | 0.00 | 68 | 1013.3 |
| 20260504043043 | 45 | 0 | 0.0 | 0.0 | 0.00 | 0.00 | 0.00 | 67 | 1013.2 |
| 20260504041542 | 45 | 0 | 0.0 | 0.0 | 0.00 | 0.00 | 0.00 | 65 | 1013.0 |
| 20260504040045 | 45 | 0 | 0.0 | 1.7 | 0.00 | 0.00 | 0.00 | 65 | 1012.9 |
| 20260504034554 | 46 | 0 | 0.0 | 0.0 | 0.00 | 0.00 | 0.00 | 65 | 1012.7 |
| 20260504033055 | 47 | 0 | 0.0 | 0.0 | 0.00 | 0.00 | 0.00 | 62 | 1012.6 |
| 20260504031559 | 47 | 0 | 0.0 | 0.9 | 0.00 | 0.00 | 0.00 | 58 | 1012.6 |
| 20260504030101 | 47 | 0 | 0.0 | 0.9 | 0.00 | 0.00 | 0.00 | 61 | 1012.7 |
| 20260504024550 | 47 | 0 | 0.0 | 0.9 | 0.00 | 0.00 | 0.00 | 59 | 1012.7 |
| 20260504023047 | 48 | 0 | 0.0 | 0.9 | 0.00 | 0.00 | 0.00 | 59 | 1012.7 |
| 20260504021544 | 49 | 0 | 0.0 | 0.9 | 0.00 | 0.00 | 0.00 | 57 | 1012.7 |
| 20260504020046 | 50 | 0 | 0.0 | 0.9 | 0.00 | 0.00 | 0.00 | 52 | 1012.7 |
| 20260504014550 | 49 | 0 | 0.0 | 0.0 | 0.00 | 0.00 | 0.00 | 52 | 1012.7 |
| 20260504013050 | 49 | 0 | 0.0 | 0.0 | 0.00 | 0.00 | 0.00 | 52 | 1012.5 |
| 20260504011545 | 50 | 0 | 0.0 | 0.9 | 0.00 | 0.00 | 0.00 | 53 | 1012.4 |
| 20260504010051 | 51 | 0 | 0.0 | 0.9 | 0.00 | 0.00 | 0.00 | 52 | 1012.2 |
| 20260504004549 | 52 | 221 | 0.0 | 0.9 | 0.00 | 0.00 | 0.00 | 47 | 1012.0 |
| 20260504003048 | 52 | 0 | 0.0 | 0.9 | 0.00 | 0.00 | 0.00 | 49 | 1011.8 |
| 20260504001550 | 53 | 0 | 0.0 | 0.9 | 0.00 | 0.00 | 0.00 | 47 | 1011.7 |
| 20260504000120 | 54 | 0 | 0.0 | 0.9 | 0.00 | 0.00 | 0.00 | 47 | 1011.4 |
| 20260503234543 | 56 | 0 | 0.0 | 0.9 | 0.00 | 0.00 | 0.00 | 38 | 1011.2 |
| 20260503233044 | 58 | 0 | 0.0 | 0.9 | 0.00 | 0.00 | 0.00 | 37 | 1011.1 |
| 20260503231547 | 58 | 0 | 0.0 | 4.3 | 0.00 | 0.00 | 0.00 | 36 | 1011.2 |
| 20260503230042 | 59 | 195 | 0.9 | 6.1 | 0.00 | 0.00 | 0.00 | 36 | 1011.0 |
| 20260503224553 | 60 | 192 | 0.9 | 5.2 | 0.00 | 0.00 | 0.00 | 34 | 1011.0 |
| 20260503223047 | 60 | 207 | 1.7 | 7.8 | 0.00 | 0.00 | 0.00 | 36 | 1011.0 |
| 20260503221543 | 61 | 209 | 1.7 | 8.7 | 0.00 | 0.00 | 0.00 | 31 | 1011.0 |
| 20260503220046 | 60 | 243 | 1.7 | 6.1 | 0.00 | 0.00 | 0.00 | 33 | 1011.0 |
| 20260503214552 | 61 | 233 | 1.7 | 5.2 | 0.00 | 0.00 | 0.00 | 31 | 1010.7 |
| 20260503213049 | 61 | 192 | 2.6 | 7.8 | 0.00 | 0.00 | 0.00 | 32 | 1010.6 |
| 20260503211548 | 60 | 167 | 0.9 | 7.0 | 0.00 | 0.00 | 0.00 | 33 | 1010.5 |
| 20260503210050 | 62 | 216 | 0.9 | 7.0 | 0.00 | 0.00 | 0.00 | 33 | 1010.6 |
| 20260503204552 | 61 | 203 | 0.0 | 6.1 | 0.00 | 0.00 | 0.00 | 33 | 1010.7 |
| 20260503203050 | 61 | 172 | 1.7 | 6.1 | 0.00 | 0.00 | 0.00 | 32 | 1010.7 |
| 20260503201546 | 62 | 203 | 2.6 | 11.3 | 0.00 | 0.00 | 0.00 | 31 | 1011.0 |
| 20260503200048 | 62 | 226 | 2.6 | 7.0 | 0.00 | 0.00 | 0.00 | 36 | 1011.4 |
| 20260503194546 | 62 | 198 | 1.7 | 6.1 | 0.00 | 0.00 | 0.00 | 35 | 1011.3 |
| 20260503193042 | 62 | 197 | 2.6 | 8.7 | 0.00 | 0.00 | 0.00 | 32 | 1011.4 |
| 20260503191550 | 61 | 158 | 0.9 | 10.4 | 0.00 | 0.00 | 0.00 | 37 | 1011.5 |
| 20260503190050 | 59 | 257 | 3.5 | 8.7 | 0.00 | 0.00 | 0.00 | 36 | 1011.6 |
| 20260503184605 | 58 | 237 | 4.3 | 9.6 | 0.00 | 0.00 | 0.00 | 34 | 1012.0 |
| 20260503183048 | 59 | 191 | 2.6 | 9.6 | 0.00 | 0.00 | 0.00 | 35 | 1012.0 |
| 20260503181557 | 58 | 160 | 2.6 | 7.0 | 0.00 | 0.00 | 0.00 | 38 | 1012.0 |
| 20260503180044 | 57 | 212 | 3.5 | 7.8 | 0.00 | 0.00 | 0.00 | 36 | 1012.2 |
| 20260503174540 | 57 | 179 | 0.9 | 6.1 | 0.00 | 0.00 | 0.00 | 39 | 1012.3 |
| 20260503173045 | 55 | 153 | 0.9 | 7.8 | 0.00 | 0.00 | 0.00 | 37 | 1012.2 |
| 20260503171604 | 57 | 198 | 3.5 | 7.8 | 0.00 | 0.00 | 0.00 | 40 | 1012.5 |
| 20260503081542 | 43 | 0 | 0.0 | 2.6 | 0.00 | 0.00 | 0.00 | 61 | 1011.6 |
| 20260503071603 | 44 | 0 | 0.0 | 2.6 | 0.00 | 0.03 | 0.00 | 60 | 1011.3 |
| 20260503054556 | 44 | 0 | 0.0 | 0.9 | 0.00 | 0.04 | 0.00 | 64 | 1011.8 |
| 20260503053045 | 44 | 0 | 0.0 | 0.0 | 0.00 | 0.04 | 0.00 | 62 | 1011.8 |